period_start,C,m1,H,J0,J1,J2,J3,J4,J5,JA,JB,JC,JD,JJ,JK,JN,#
2015-05-04 00:03:20,0.12,0.26,0.00,23.38,27.05,29.65,4.84,26.59,1027.68,2035.82,3329.24,3251.26,3531.23,350.02,350.91,9.46,0000 0000 0000 0000 000000
2015-05-04 00:08:22,0.03,0.26,0.00,23.42,27.05,29.76,4.83,26.57,1027.72,2035.52,3328.25,3250.53,3530.41,349.98,350.80,9.49,0000 0000 0000 0000 000000
2015-05-04 00:13:23,0.04,0.26,0.00,23.48,27.06,29.81,4.77,26.58,1027.67,2035.20,3327.21,3249.68,3529.46,349.65,350.61,9.52,0000 0000 0000 0000 000000
2015-05-04 00:18:25,0.07,0.26,0.00,23.56,27.07,29.83,4.83,26.52,1027.62,2035.21,3326.18,3248.92,3528.62,350.33,350.92,9.54,0000 0000 0000 0000 000000
2015-05-04 00:23:26,0.07,0.27,0.00,23.43,27.08,29.90,4.87,26.63,1027.71,2035.15,3325.03,3248.09,3527.80,350.11,351.03,9.57,0000 0000 0000 0000 000000
2015-05-04 00:28:28,0.08,0.27,0.00,23.28,27.10,29.93,4.84,26.60,1027.77,2035.13,3323.87,3247.25,3526.88,350.06,351.16,9.60,0000 0000 0000 0000 000000
2015-05-04 00:33:29,0.09,0.27,0.00,23.25,27.10,29.95,4.85,26.51,1027.71,2035.04,3322.72,3246.40,3525.92,350.11,351.21,9.63,0000 0000 0000 0000 000000
2015-05-04 00:38:30,0.08,0.27,0.00,23.18,27.10,29.97,4.86,26.62,1027.61,2035.02,3321.56,3245.60,3525.07,349.83,351.13,9.66,0000 0000 0000 0000 000000
2015-05-04 00:43:32,0.05,0.28,0.00,23.11,27.10,29.97,4.80,26.62,1027.73,2035.05,3320.75,3245.01,3524.39,349.68,351.01,9.69,0000 0000 0000 0000 000000
2015-05-04 00:48:33,0.06,0.28,0.00,23.28,27.10,29.89,4.91,26.62,1027.79,2035.06,3319.97,3244.35,3523.85,350.27,351.28,9.72,0000 0000 0000 0000 000000
2015-05-04 00:53:34,0.07,0.28,0.00,23.49,27.11,29.82,4.78,26.60,1027.82,2035.03,3318.99,3243.70,3522.97,349.62,350.77,9.75,0000 0000 0000 0000 000000
2015-05-04 00:58:35,0.07,0.28,0.00,23.56,27.12,29.88,4.82,26.69,1027.83,2035.03,3318.06,3243.00,3522.08,349.96,350.84,9.78,0000 0000 0000 0000 000000
2015-05-04 01:03:37,0.09,0.28,0.00,23.64,27.13,29.87,4.74,26.54,1027.84,2035.02,3317.19,3242.19,3521.45,349.86,350.58,9.81,0000 0000 0000 0000 000000
2015-05-04 01:08:38,0.03,0.29,0.00,23.60,27.15,29.90,4.74,26.59,1027.84,2035.02,3316.35,3241.82,3520.96,350.20,350.97,9.84,0000 0000 0000 0000 000000
2015-05-04 01:13:40,0.08,0.29,0.00,23.43,27.15,29.98,4.83,26.60,1027.83,2035.01,3315.53,3241.05,3520.18,350.00,350.75,9.87,0000 0000 0000 0000 000000
2015-05-04 01:18:41,0.07,0.29,0.00,23.42,27.16,30.00,4.77,26.53,1027.83,2035.00,3314.68,3240.33,3519.58,349.30,350.33,9.90,0000 0000 0000 0000 000000
2015-05-04 01:23:42,0.02,0.29,0.00,23.38,27.17,30.02,4.90,26.61,1027.85,2035.00,3313.98,3239.99,3519.01,350.01,351.05,9.92,0000 0000 0000 0000 000000
2015-05-04 01:28:43,0.07,0.29,0.00,23.32,27.17,30.04,4.89,26.66,1027.85,2035.00,3313.27,3239.46,3518.65,350.26,351.31,9.95,0000 0000 0000 0000 000000
2015-05-04 01:33:44,0.03,0.29,0.00,23.27,27.17,30.04,4.84,26.64,1027.85,2035.00,3312.73,3239.00,3518.03,350.03,351.20,9.98,0000 0000 0000 0000 000000
2015-05-04 01:38:45,0.07,0.30,0.00,23.27,27.17,30.04,4.92,26.73,1027.85,2035.00,3312.01,3238.48,3517.58,350.02,351.23,10.01,0000 0000 0000 0000 000000
2015-05-04 01:43:47,0.03,0.30,0.00,23.24,27.17,30.03,4.83,26.57,1027.85,2035.00,3311.61,3238.02,3517.02,349.57,350.96,10.04,0000 0000 0000 0000 000000
2015-05-04 01:48:48,0.02,0.30,0.00,23.22,27.17,30.02,4.82,26.60,1027.85,2035.00,3310.98,3237.90,3516.90,349.75,351.07,10.07,0000 0000 0000 0000 000000
2015-05-04 01:53:49,0.08,0.30,0.00,23.22,27.17,30.04,4.86,26.59,1027.85,2035.00,3310.16,3237.11,3516.11,350.12,351.36,10.10,0000 0000 0000 0000 000000
2015-05-04 01:58:50,0.04,0.30,0.00,23.22,27.17,30.00,4.75,26.67,1027.84,2035.00,3309.50,3236.85,3515.77,349.55,350.88,10.13,0000 0000 0000 0000 000000
2015-05-04 02:03:52,0.05,0.30,0.00,23.23,27.17,30.01,4.73,26.55,1027.85,2035.00,3308.94,3236.12,3515.08,349.20,350.37,10.16,0000 0000 0000 0000 000000
2015-05-04 02:08:53,0.03,0.30,0.00,23.25,27.17,30.01,4.87,26.62,1027.85,2035.00,3308.12,3235.95,3514.73,349.62,350.80,10.19,0000 0000 0000 0000 000000
2015-05-04 02:13:54,0.07,0.31,0.00,23.26,27.17,30.00,4.79,26.71,1027.85,2035.00,3307.52,3235.20,3514.04,349.83,351.19,10.22,0000 0000 0000 0000 000000
2015-05-04 02:18:55,0.01,0.31,0.00,23.27,27.17,30.00,4.83,26.63,1027.85,2035.00,3306.96,3234.98,3513.86,349.84,351.06,10.25,0000 0000 0000 0000 000000
2015-05-04 02:23:56,0.08,0.31,0.00,23.31,27.17,30.00,4.81,26.65,1027.86,2035.00,3306.12,3234.30,3513.08,349.94,351.17,10.28,0000 0000 0000 0000 000000
2015-05-04 02:28:58,0.03,0.31,0.00,23.32,27.17,30.00,4.80,26.54,1027.86,2035.00,3305.59,3234.01,3512.83,349.75,350.76,10.31,0000 0000 0000 0000 000000
2015-05-04 02:33:59,0.05,0.31,0.00,23.32,27.17,29.99,4.84,26.63,1027.86,2035.00,3305.00,3233.53,3512.13,349.96,350.98,10.33,0000 0000 0000 0000 000000
2015-05-04 02:39:01,0.03,0.31,0.00,23.36,27.18,30.01,4.82,26.66,1027.88,2035.00,3304.22,3233.01,3511.97,349.81,350.88,10.36,0000 0000 0000 0000 000000
2015-05-04 02:44:02,0.01,0.31,0.00,23.40,27.19,30.01,4.88,26.62,1027.88,2035.00,3304.00,3232.98,3511.66,350.30,351.29,10.39,0000 0000 0000 0000 000000
2015-05-04 02:49:03,0.07,0.32,0.00,23.41,27.20,30.02,4.84,26.57,1027.90,2035.00,3303.47,3232.42,3511.02,350.24,351.31,10.42,0000 0000 0000 0000 000000
2015-05-04 02:54:04,0.01,0.32,0.00,23.44,27.20,30.02,4.80,26.59,1027.87,2035.00,3303.00,3232.02,3510.96,349.90,350.70,10.45,0000 0000 0000 0000 000000
2015-05-04 02:59:06,0.02,0.32,0.00,23.48,27.20,30.01,4.82,26.65,1027.89,2035.00,3302.90,3231.99,3510.51,350.21,351.06,10.48,0000 0000 0000 0000 000000
2015-05-04 03:04:07,0.03,0.32,0.00,23.52,27.20,30.02,4.76,26.60,1028.01,2035.00,3302.24,3231.97,3510.07,349.65,350.45,10.51,0000 0000 0000 0000 000000
2015-05-04 03:09:08,0.03,0.32,0.00,23.53,27.20,30.00,4.84,26.64,1028.24,2035.00,3302.01,3231.52,3510.00,350.03,351.22,10.54,0000 0000 0000 0000 000000
2015-05-04 03:14:09,0.01,0.32,0.00,23.57,27.21,30.00,4.82,26.62,1028.32,2035.00,3301.93,3231.04,3509.98,349.64,350.80,10.57,0000 0000 0000 0000 000000
2015-05-04 03:19:11,0.03,0.32,0.00,23.60,27.22,29.99,4.79,26.54,1028.30,2035.00,3301.33,3231.00,3509.75,349.25,350.29,10.60,0000 0000 0000 0000 000000
2015-05-04 03:24:12,0.01,0.32,0.00,23.62,27.22,29.98,4.74,26.61,1028.21,2035.00,3301.01,3230.98,3509.13,349.48,350.16,10.63,0000 0000 0000 0000 000000
2015-05-04 03:29:13,0.02,0.32,0.00,23.64,27.22,29.96,4.72,26.68,1028.02,2035.00,3300.90,3230.60,3509.00,349.47,350.38,10.66,0000 0000 0000 0000 000000
2015-05-04 03:34:15,0.04,0.32,0.00,23.71,27.23,29.92,4.79,26.57,1028.04,2034.99,3300.24,3230.08,3508.98,349.94,350.74,10.69,0000 0000 0000 0000 000000
2015-05-04 03:39:16,0.01,0.32,0.00,23.76,27.25,29.91,4.81,26.69,1028.17,2034.99,3300.00,3230.00,3508.50,350.06,350.81,10.72,0000 0000 0000 0000 000000
2015-05-04 03:44:17,0.01,0.32,0.00,23.78,27.25,29.91,4.80,26.63,1028.19,2034.99,3299.95,3230.00,3508.11,349.89,350.30,10.74,0000 0000 0000 0000 000000
2015-05-04 03:49:18,0.02,0.32,0.00,23.80,27.25,29.94,4.86,26.67,1028.30,2034.99,3299.48,3229.93,3508.00,350.31,350.97,10.77,0000 0000 0000 0000 000000
2015-05-04 03:54:19,0.04,0.33,0.00,23.84,27.26,29.92,4.77,26.57,1028.33,2034.98,3299.02,3229.33,3507.97,349.88,350.41,10.80,0000 0000 0000 0000 000000
2015-05-04 03:59:21,0.03,0.33,0.00,23.88,27.27,29.89,4.87,26.68,1028.33,2034.99,3298.82,3229.01,3507.34,350.56,351.21,10.83,0000 0000 0000 0000 000000
2015-05-04 04:04:22,0.01,0.33,0.00,23.90,27.27,29.88,4.76,26.52,1028.33,2034.98,3298.22,3228.99,3507.03,349.87,350.84,10.86,0000 0000 0000 0000 000000
2015-05-04 04:09:23,0.02,0.33,0.00,23.93,27.30,29.88,4.75,26.57,1028.33,2034.98,3298.01,3228.79,3506.98,350.28,350.74,10.89,0000 0000 0000 0000 000000
2015-05-04 04:14:25,0.04,0.33,0.00,23.99,27.30,29.89,4.84,26.60,1028.33,2034.95,3297.70,3228.09,3506.68,349.98,350.57,10.92,0000 0000 0000 0000 000000
2015-05-04 04:19:26,0.01,0.33,0.00,24.03,27.31,29.88,4.90,26.62,1028.33,2034.87,3297.05,3228.00,3506.05,350.51,351.00,10.95,0000 0000 0000 0000 000000
2015-05-04 04:24:27,0.01,0.33,0.00,24.06,27.32,29.89,4.86,26.59,1028.33,2034.89,3296.99,3227.98,3506.00,349.89,350.31,10.98,0000 0000 0000 0000 000000
2015-05-04 04:29:29,0.04,0.33,0.00,24.08,27.33,29.90,4.74,26.56,1028.33,2034.78,3296.44,3227.57,3505.90,349.52,350.00,11.01,0000 0000 0000 0000 000000
2015-05-04 04:34:30,0.03,0.33,0.00,24.11,27.35,29.89,4.70,26.52,1028.35,2034.70,3296.03,3227.05,3505.39,348.94,349.32,11.04,0000 0000 0000 0000 000000
2015-05-04 04:39:31,-0.07,0.33,0.00,24.15,27.36,29.89,4.79,26.57,1028.34,2034.25,3295.80,3226.99,3505.01,350.54,350.55,11.07,0000 0000 0000 0000 000000
2015-05-04 04:44:32,0.02,0.33,0.00,24.17,27.37,29.90,4.77,26.51,1028.35,2034.11,3295.17,3226.79,3504.94,349.55,349.91,11.10,0000 0000 0000 0000 000000
2015-05-04 04:49:34,0.04,0.33,0.00,24.18,27.39,29.92,4.91,26.58,1028.35,2034.09,3294.99,3226.16,3504.34,350.37,350.51,11.13,0000 0000 0000 0000 000000
2015-05-04 04:54:35,0.01,0.33,0.00,24.21,27.40,29.93,4.87,26.60,1028.35,2034.02,3294.50,3226.00,3504.00,350.15,350.43,11.15,0000 0000 0000 0000 000000
2015-05-04 04:59:36,0.01,0.33,0.00,24.24,27.42,29.94,4.93,26.66,1028.35,2034.01,3294.01,3225.91,3503.92,350.11,350.47,11.18,0000 0000 0000 0000 000000
2015-05-04 05:04:38,0.04,0.33,0.00,24.27,27.42,29.95,4.83,26.59,1028.37,2034.00,3293.95,3225.34,3503.42,349.98,350.20,11.21,0000 0000 0000 0000 000000
2015-05-04 05:09:39,0.04,0.34,0.00,24.28,27.45,29.97,4.74,26.56,1028.39,2034.00,3293.27,3225.02,3503.03,349.81,349.89,11.24,0000 0000 0000 0000 000000
2015-05-04 05:14:40,0.00,0.34,0.00,24.31,27.45,29.98,4.83,26.63,1028.47,2034.00,3293.00,3224.99,3502.97,350.50,350.84,11.27,0000 0000 0000 0000 000000
2015-05-04 05:19:41,0.05,0.34,0.00,24.33,27.47,29.99,4.88,26.54,1028.60,2034.00,3292.76,3224.73,3502.41,350.49,350.76,11.30,0000 0000 0000 0000 000000
2015-05-04 05:24:43,0.04,0.34,0.00,24.38,27.49,30.00,4.84,26.60,1028.66,2034.00,3292.05,3224.05,3502.01,349.71,349.72,11.33,0000 0000 0000 0000 000000
2015-05-04 05:29:44,0.00,0.34,0.00,24.40,27.50,30.02,4.84,26.48,1028.75,2033.99,3291.97,3223.99,3501.96,350.08,350.47,11.36,0000 0000 0000 0000 000000
2015-05-04 05:34:45,0.05,0.34,0.00,24.42,27.52,30.03,4.74,26.56,1028.72,2033.98,3291.29,3223.84,3501.27,349.34,349.62,11.39,0000 0000 0000 0000 000000
2015-05-04 05:39:46,0.03,0.34,0.00,24.43,27.52,30.04,4.72,26.61,1028.72,2033.98,3290.99,3223.11,3501.01,350.33,350.47,11.42,0000 0000 0000 0000 000000
2015-05-04 05:44:47,0.01,0.34,0.00,24.43,27.55,30.06,4.88,26.52,1028.80,2033.97,3290.75,3223.00,3500.97,350.49,350.61,11.45,0000 0000 0000 0000 000000
2015-05-04 05:49:48,0.03,0.34,0.00,24.46,27.56,30.08,4.73,26.52,1028.82,2033.93,3290.07,3222.93,3500.34,349.72,349.83,11.48,0000 0000 0000 0000 000000
2015-05-04 05:54:49,0.02,0.34,0.00,24.50,27.57,30.08,4.81,26.57,1028.80,2033.89,3289.98,3222.34,3500.01,350.46,350.32,11.51,0000 0000 0000 0000 000000
2015-05-04 05:59:51,0.03,0.34,0.00,24.51,27.60,30.10,4.86,26.57,1028.78,2033.81,3289.31,3222.01,3499.98,350.34,350.40,11.54,0000 0000 0000 0000 000000
2015-05-04 06:04:52,-0.02,0.34,0.00,24.53,27.60,30.11,4.83,26.52,1028.82,2033.61,3289.01,3221.99,3499.40,350.28,350.27,11.56,0000 0000 0000 0000 000000
2015-05-04 06:09:53,0.02,0.34,0.00,24.55,27.62,30.12,4.72,26.48,1028.82,2033.41,3288.75,3221.55,3499.01,349.54,349.73,11.59,0000 0000 0000 0000 000000
2015-05-04 06:14:54,0.00,0.34,0.00,24.57,27.63,30.13,4.78,26.55,1028.83,2033.21,3288.09,3221.05,3498.97,350.41,350.42,11.62,0000 0000 0000 0000 000000
2015-05-04 06:19:55,0.01,0.34,0.00,24.61,27.65,30.13,4.92,26.54,1028.84,2033.12,3288.00,3221.00,3498.50,350.11,350.01,11.65,0000 0000 0000 0000 000000
2015-05-04 06:24:56,0.02,0.34,0.00,24.65,27.66,30.13,4.83,26.50,1028.85,2033.07,3287.61,3220.90,3498.03,349.79,349.82,11.68,0000 0000 0000 0000 000000
2015-05-04 06:29:57,0.03,0.35,0.00,24.66,27.67,30.15,4.80,26.51,1028.88,2033.03,3287.03,3220.26,3497.96,349.92,349.93,11.71,0000 0000 0000 0000 000000
2015-05-04 06:34:59,0.02,0.35,0.00,24.68,27.69,30.15,4.86,26.48,1028.99,2033.01,3286.84,3220.00,3497.44,349.97,350.01,11.74,0000 0000 0000 0000 000000
2015-05-04 06:40:00,0.02,0.35,0.00,24.70,27.70,30.18,4.77,26.53,1029.17,2033.00,3286.10,3219.99,3497.04,349.93,349.98,11.77,0000 0000 0000 0000 000000
2015-05-04 06:45:01,0.01,0.35,0.00,24.72,27.72,30.20,4.88,26.55,1029.26,2033.00,3286.01,3219.84,3497.00,350.62,350.53,11.80,0000 0000 0000 0000 000000
2015-05-04 06:50:03,0.04,0.35,0.00,24.75,27.72,30.21,4.83,26.48,1029.25,2033.00,3285.91,3219.17,3496.82,349.85,349.88,11.83,0000 0000 0000 0000 000000
2015-05-04 06:55:04,0.03,0.35,0.00,24.77,27.75,30.22,4.73,26.52,1029.27,2033.00,3285.27,3219.00,3496.19,349.63,349.52,11.86,0000 0000 0000 0000 000000
2015-05-04 07:00:05,0.01,0.35,0.00,24.77,27.75,30.23,4.83,26.60,1029.29,2032.99,3285.00,3219.00,3496.01,349.81,349.88,11.89,0000 0000 0000 0000 000000
2015-05-04 07:05:06,0.00,0.35,0.00,24.80,27.77,30.24,4.85,26.55,1029.30,2032.99,3285.00,3218.97,3496.00,350.29,350.15,11.92,0000 0000 0000 0000 000000
2015-05-04 07:10:07,0.03,0.35,0.00,24.83,27.77,30.25,4.84,26.48,1029.29,2032.98,3284.83,3218.60,3495.98,350.57,350.39,11.94,0000 0000 0000 0000 000000
2015-05-04 07:15:08,0.05,0.35,0.00,24.85,27.78,30.27,4.76,26.46,1029.31,2032.96,3284.17,3218.07,3495.49,349.85,349.77,11.97,0000 0000 0000 0000 000000
2015-05-04 07:20:09,0.01,0.35,0.00,24.87,27.80,30.28,4.70,26.41,1029.31,2032.97,3284.01,3218.00,3495.06,349.88,349.68,12.00,0000 0000 0000 0000 000000
2015-05-04 07:25:10,-0.01,0.35,0.00,24.87,27.80,30.29,4.87,26.54,1029.31,2032.90,3284.00,3218.00,3495.00,350.16,349.88,12.03,0000 0000 0000 0000 000000
2015-05-04 07:30:11,-0.01,0.35,0.00,24.90,27.82,30.30,4.83,26.46,1029.31,2032.75,3283.79,3217.89,3494.97,350.03,349.78,12.06,0000 0000 0000 0000 000000
2015-05-04 07:35:13,0.04,0.35,0.00,24.92,27.82,30.32,4.81,26.52,1029.32,2032.46,3283.08,3217.24,3494.56,350.14,350.04,12.09,0000 0000 0000 0000 000000
2015-05-04 07:40:14,-0.04,0.35,0.00,24.94,27.84,30.34,4.87,26.51,1029.33,2032.24,3282.98,3217.02,3494.04,350.07,349.78,12.12,0000 0000 0000 0000 000000
2015-05-04 07:45:16,0.01,0.35,0.00,24.97,27.85,30.34,4.76,26.38,1029.35,2032.11,3282.51,3217.00,3494.00,349.48,349.20,12.15,0000 0000 0000 0000 000000
2015-05-04 07:50:17,0.02,0.35,0.00,25.01,27.86,30.35,4.77,26.39,1029.38,2032.10,3282.04,3216.96,3493.96,350.02,349.87,12.18,0000 0000 0000 0000 000000
2015-05-04 07:55:18,0.01,0.35,0.00,25.02,27.87,30.36,4.80,26.49,1029.61,2032.08,3282.00,3216.69,3493.71,350.07,349.73,12.21,0000 0000 0000 0000 000000
2015-05-04 08:00:20,0.04,0.35,0.00,25.05,27.87,30.38,4.87,26.48,1029.75,2032.09,3281.94,3216.18,3493.19,350.73,350.67,12.24,0000 0000 0000 0000 000000
2015-05-04 08:05:21,0.02,0.36,0.00,25.08,27.90,30.38,4.84,26.50,1029.80,2032.08,3281.13,3216.00,3493.00,350.11,349.92,12.27,0000 0000 0000 0000 000000
2015-05-04 08:10:22,0.02,0.36,0.00,25.10,27.90,30.40,4.71,26.34,1029.80,2032.04,3280.82,3215.86,3492.75,349.58,349.16,12.30,0000 0000 0000 0000 000000
2015-05-04 08:15:23,0.06,0.36,0.00,25.11,27.91,30.41,4.71,26.44,1029.80,2032.01,3280.05,3215.08,3492.04,349.58,349.27,12.33,0000 0000 0000 0000 000000
2015-05-04 08:20:25,0.02,0.36,0.00,25.12,27.92,30.42,4.83,26.52,1029.81,2032.01,3279.63,3214.98,3491.86,350.08,349.94,12.36,0000 0000 0000 0000 000000
2015-05-04 08:25:26,0.05,0.36,0.00,25.12,27.93,30.43,4.80,26.50,1029.81,2032.00,3279.02,3214.52,3491.18,350.18,349.89,12.38,0000 0000 0000 0000 000000
2015-05-04 08:30:27,0.02,0.36,0.00,25.12,27.95,30.45,4.86,26.37,1029.81,2032.00,3278.76,3214.03,3491.00,350.80,350.46,12.41,0000 0000 0000 0000 000000
2015-05-04 08:35:28,0.04,0.36,0.00,25.12,27.95,30.48,4.86,26.41,1029.84,2032.00,3278.02,3213.90,3490.59,350.43,350.16,12.44,0000 0000 0000 0000 000000
2015-05-04 08:40:29,0.07,0.36,0.00,25.11,27.97,30.48,4.74,26.47,1029.91,2032.00,3277.28,3213.09,3490.01,349.71,349.40,12.47,0000 0000 0000 0000 000000
2015-05-04 08:45:31,0.02,0.36,0.00,25.11,27.97,30.50,4.71,26.41,1030.04,2031.99,3276.92,3212.96,3489.52,349.91,349.69,12.50,0000 0000 0000 0000 000000
2015-05-04 08:50:32,0.07,0.37,0.00,25.11,27.99,30.51,4.84,26.44,1030.22,2031.99,3276.12,3212.22,3488.99,350.27,350.15,12.53,0000 0000 0000 0000 000000
2015-05-04 08:55:33,0.08,0.37,0.00,25.11,28.00,30.51,4.80,26.45,1030.25,2031.99,3275.32,3211.68,3488.21,350.10,349.76,12.56,0000 0000 0000 0000 000000
2015-05-04 09:00:34,0.06,0.37,0.00,25.10,28.00,30.54,4.67,26.43,1030.28,2031.99,3274.47,3210.98,3487.63,349.75,349.66,12.59,0000 0000 0000 0000 000000
2015-05-04 09:05:35,0.05,0.37,0.00,25.10,28.01,30.55,4.85,26.48,1030.29,2031.98,3273.81,3210.27,3487.00,350.43,350.39,12.62,0000 0000 0000 0000 000000
2015-05-04 09:10:37,0.04,0.37,0.00,25.10,28.02,30.55,4.83,26.48,1030.29,2031.99,3273.06,3210.00,3486.54,350.24,350.17,12.65,0000 0000 0000 0000 000000
2015-05-04 09:15:38,0.05,0.37,0.00,25.10,28.02,30.56,4.80,26.47,1030.29,2031.96,3272.62,3209.63,3486.02,350.02,349.91,12.68,0000 0000 0000 0000 000000
2015-05-04 09:20:39,0.02,0.38,0.00,25.12,28.02,30.56,4.69,26.40,1030.29,2031.90,3272.00,3209.03,3485.55,349.40,349.38,12.71,0000 0000 0000 0000 000000
2015-05-04 09:25:40,0.05,0.38,0.00,25.12,28.05,30.55,4.69,26.46,1030.29,2031.91,3271.29,3208.75,3485.00,349.80,349.61,12.74,0000 0000 0000 0000 000000
2015-05-04 09:30:42,0.07,0.38,0.00,25.12,28.05,30.55,4.81,26.43,1030.29,2031.91,3270.51,3208.04,3484.24,349.97,349.91,12.76,0000 0000 0000 0000 000000
2015-05-04 09:35:43,-0.01,0.38,0.00,25.12,28.05,30.55,4.72,26.44,1030.30,2031.71,3269.97,3207.53,3483.91,349.70,349.57,12.79,0000 0000 0000 0000 000000
2015-05-04 09:40:44,0.00,0.38,0.00,25.12,28.05,30.56,4.81,26.42,1030.29,2031.38,3269.35,3207.01,3483.30,350.40,350.19,12.82,0000 0000 0000 0000 000000
2015-05-04 09:45:45,0.04,0.38,0.00,25.12,28.07,30.56,4.70,26.47,1030.31,2031.51,3269.04,3207.00,3483.11,349.87,349.75,12.85,0000 0000 0000 0000 000000
2015-05-04 09:50:47,-0.04,0.38,0.00,25.12,28.07,30.59,4.82,26.43,1030.31,2031.44,3269.00,3206.99,3483.01,350.27,350.23,12.88,0000 0000 0000 0000 000000
2015-05-04 09:55:48,-0.00,0.38,0.00,25.12,28.07,30.59,4.84,26.44,1030.35,2031.29,3268.99,3206.97,3483.00,350.41,350.31,12.91,0000 0000 0000 0000 000000
2015-05-04 10:00:49,0.01,0.38,0.00,25.12,28.09,30.58,4.78,26.45,1030.54,2031.20,3268.89,3206.76,3482.96,350.21,350.00,12.94,0000 0000 0000 0000 000000
2015-05-04 10:05:50,0.04,0.38,0.00,25.13,28.10,30.57,4.71,26.46,1030.60,2031.14,3268.28,3206.21,3482.66,349.36,349.42,12.97,0000 0000 0000 0000 000000
2015-05-04 10:10:51,0.01,0.38,0.00,25.14,28.10,30.54,4.67,26.49,1030.59,2031.06,3268.01,3206.00,3482.05,349.28,349.05,13.00,0000 0000 0000 0000 000000
2015-05-04 10:15:52,-0.00,0.38,0.00,25.15,28.11,30.54,4.76,26.37,1030.61,2031.02,3267.99,3206.00,3482.00,349.68,349.65,13.03,0000 0000 0000 0000 000000
2015-05-04 10:20:54,0.00,0.38,0.00,25.15,28.12,30.54,4.79,26.40,1030.70,2031.02,3267.92,3205.98,3481.99,349.78,349.73,13.06,0000 0000 0000 0000 000000
2015-05-04 10:25:55,0.02,0.38,0.00,25.14,28.12,30.54,4.72,26.38,1030.72,2031.01,3267.50,3205.86,3481.92,349.78,349.79,13.09,0000 0000 0000 0000 000000
2015-05-04 10:30:56,0.05,0.38,0.00,25.14,28.14,30.53,4.75,26.33,1030.77,2031.03,3267.07,3205.31,3481.44,349.70,349.61,13.12,0000 0000 0000 0000 000000
2015-05-04 10:35:57,0.01,0.39,0.00,25.15,28.15,30.53,4.78,26.43,1030.78,2031.00,3267.00,3205.03,3481.06,349.96,349.94,13.14,0000 0000 0000 0000 000000
2015-05-04 10:40:59,0.01,0.39,0.00,25.17,28.15,30.54,4.68,26.39,1030.78,2031.00,3266.79,3205.00,3481.00,349.85,349.95,13.17,0000 0000 0000 0000 000000
2015-05-04 10:46:00,0.01,0.39,0.00,25.20,28.17,30.54,4.66,26.41,1030.78,2030.99,3266.26,3204.99,3480.95,349.64,349.75,13.20,0000 0000 0000 0000 000000
2015-05-04 10:51:01,0.03,0.39,0.00,25.23,28.17,30.53,4.84,26.43,1030.78,2030.99,3266.02,3204.72,3480.57,350.67,350.49,13.23,0000 0000 0000 0000 000000
2015-05-04 10:56:02,0.03,0.39,0.00,25.26,28.17,30.57,4.88,26.47,1030.78,2030.99,3265.99,3204.17,3480.06,350.50,350.40,13.26,0000 0000 0000 0000 000000
2015-05-04 11:01:03,0.01,0.39,0.00,25.30,28.19,30.58,4.80,26.47,1030.78,2030.98,3265.88,3204.03,3480.00,349.99,350.04,13.29,0000 0000 0000 0000 000000
2015-05-04 11:06:05,0.01,0.39,0.00,25.34,28.20,30.59,4.75,26.46,1030.79,2030.97,3265.26,3204.00,3480.00,350.00,349.88,13.32,0000 0000 0000 0000 000000
2015-05-04 11:11:06,0.00,0.39,0.00,25.34,28.20,30.61,4.79,26.45,1030.79,2030.97,3265.01,3203.98,3479.91,350.10,349.91,13.35,0000 0000 0000 0000 000000
2015-05-04 11:16:07,0.01,0.39,0.00,25.31,28.21,30.65,4.81,26.52,1030.79,2030.96,3265.00,3203.95,3479.68,350.31,350.01,13.38,0000 0000 0000 0000 000000
2015-05-04 11:21:09,0.04,0.39,0.00,25.28,28.22,30.68,4.78,26.56,1030.80,2030.97,3264.90,3203.61,3479.17,350.23,350.19,13.41,0000 0000 0000 0000 000000
2015-05-04 11:26:10,0.03,0.39,0.00,25.25,28.22,30.68,4.75,26.48,1030.79,2030.96,3264.37,3203.10,3479.00,349.94,349.76,13.44,0000 0000 0000 0000 000000
2015-05-04 11:31:11,0.01,0.39,0.00,25.23,28.22,30.70,4.76,26.44,1030.79,2030.95,3264.03,3203.01,3479.00,349.90,349.91,13.47,0000 0000 0000 0000 000000
2015-05-04 11:36:13,-0.02,0.39,0.00,25.20,28.22,30.72,4.77,26.44,1030.78,2030.86,3263.99,3203.00,3478.88,349.70,349.66,13.50,0000 0000 0000 0000 000000
2015-05-04 11:41:14,0.01,0.39,0.00,25.14,28.22,30.75,4.93,26.47,1030.78,2030.76,3263.98,3202.99,3478.49,350.01,350.30,13.53,0000 0000 0000 0000 000000
2015-05-04 11:46:15,-0.01,0.39,0.00,25.07,28.22,30.78,4.68,26.33,1030.78,2030.67,3263.93,3202.95,3478.07,349.52,349.67,13.55,0000 0000 0000 0000 000000
2015-05-04 11:51:16,-0.01,0.39,0.00,25.00,28.22,30.79,4.83,26.38,1030.78,2030.54,3263.50,3202.89,3478.01,350.38,350.54,13.58,0000 0000 0000 0000 000000
2015-05-04 11:56:18,0.05,0.39,0.00,24.93,28.22,30.78,4.81,26.35,1030.78,2030.65,3263.19,3202.63,3478.00,350.17,350.42,13.61,0000 0000 0000 0000 000000
2015-05-04 12:01:19,-0.03,0.39,0.00,24.88,28.21,30.79,4.88,26.42,1030.78,2030.46,3263.00,3202.12,3477.97,350.11,350.69,13.64,0000 0000 0000 0000 000000
2015-05-04 12:06:20,-0.02,0.39,0.00,24.82,28.20,30.84,4.75,26.38,1030.79,2030.24,3263.00,3202.02,3477.63,349.98,350.41,13.67,0000 0000 0000 0000 000000
2015-05-04 12:11:22,0.00,0.39,0.00,24.78,28.20,30.87,4.84,26.39,1030.79,2030.19,3262.98,3202.00,3477.11,350.14,350.85,13.70,0000 0000 0000 0000 000000
2015-05-04 12:16:23,0.04,0.39,0.00,24.73,28.19,30.87,4.84,26.48,1030.80,2030.30,3262.72,3202.00,3477.01,350.22,350.65,13.73,0000 0000 0000 0000 000000
2015-05-04 12:21:24,0.05,0.39,0.00,24.69,28.17,30.91,4.77,26.44,1030.79,2030.47,3262.05,3201.98,3477.01,349.94,350.48,13.76,0000 0000 0000 0000 000000
2015-05-04 12:26:25,0.00,0.39,0.00,24.65,28.17,30.91,4.78,26.46,1030.79,2030.43,3262.00,3201.83,3477.00,350.25,350.73,13.79,0000 0000 0000 0000 000000
2015-05-04 12:31:27,0.06,0.39,0.00,24.62,28.17,30.90,4.67,26.39,1030.80,2030.62,3261.98,3201.65,3476.99,349.38,350.11,13.82,0000 0000 0000 0000 000000
2015-05-04 12:36:28,0.01,0.40,0.00,24.58,28.15,30.89,4.83,26.49,1030.96,2030.63,3261.62,3201.21,3476.81,349.45,350.18,13.85,0000 0000 0000 0000 000000
2015-05-04 12:41:29,0.01,0.40,0.00,24.54,28.15,30.90,4.75,26.38,1031.11,2030.44,3261.06,3201.03,3476.21,349.95,350.97,13.88,0000 0000 0000 0000 000000
2015-05-04 12:46:30,0.05,0.40,0.00,24.50,28.12,30.89,4.89,26.54,1031.13,2030.84,3261.05,3201.01,3476.20,350.07,350.85,13.91,0000 0000 0000 0000 000000
2015-05-04 12:51:31,0.02,0.40,0.00,24.46,28.12,30.89,4.81,26.49,1031.08,2030.90,3261.01,3201.01,3476.09,350.25,351.06,13.94,0000 0000 0000 0000 000000
2015-05-04 12:56:32,-0.00,0.40,0.00,24.44,28.10,30.87,4.81,26.50,1031.08,2030.85,3261.00,3201.00,3476.01,349.52,350.35,13.96,0000 0000 0000 0000 000000
2015-05-04 13:01:33,0.02,0.40,0.00,24.41,28.09,30.86,4.77,26.40,1031.15,2030.94,3260.52,3200.98,3476.00,350.09,350.99,13.99,0000 0000 0000 0000 000000